IRIDIUM 25 [P]

Last updated on Tue May 15 2018 00:19:49 GMT+0000 (Coordinated Universal Time)

1 24904U 97043B 18134.21877580 .16218868 -14937-5 38687-3 0 9992 2 24904 86.4193 114.9040 0051019 90.5969 270.0285 16.39251381 85618

Satellite not in orbit